Theta_e
313 313 312 314 314 315 315 315 316 318 319 319 319 319 318 317 317 318 321 318 320 322 323 324 324 326 326 326 328 329 328 328 329 331 332 333 333 333 333 333 334 336 336 336 335 336 336 334 335 337 342 339 337 337
312 312 312 313 313 314 314 314 315 318 319 319 319 319 319 317 317 318 322 320 317 320 323 322 321 322 322 324 325 325 326 330 330 333 333 333 334 333 333 334 335 335 333 336 337 338 335 332 334 335 335 333 333 332
313 313 313 313 313 313 313 314 315 318 319 319 319 318 318 317 317 317 318 319 320 323 323 324 325 323 322 322 323 325 326 326 327 327 329 330 332 333 334 333 332 332 331 333 331 329 329 328 328 326 328 329 329 328
313 313 313 313 313 313 313 314 315 318 318 318 318 317 318 317 316 317 318 319 320 322 324 326 322 323 323 321 321 322 324 324 324 325 326 329 330 328 330 329 331 330 329 330 331 329 327 327 326 327 327 327 327 326
313 314 313 313 313 314 314 315 317 318 317 316 316 317 317 316 316 317 318 319 319 320 323 322 320 321 320 319 320 321 322 323 325 327 327 329 327 327 327 328 328 327 329 329 330 327 327 327 327 326 326 326 326 326
313 313 313 313 313 314 314 315 317 317 317 316 316 316 317 315 317 318 322 320 319 319 320 322 322 322 320 320 322 322 322 323 324 326 327 326 326 326 328 328 327 328 327 326 327 327 327 326 326 325 325 327 327 327
309 310 311 312 312 313 314 314 315 315 315 315 315 315 316 314 317 320 320 320 317 316 319 322 323 321 320 322 322 322 323 324 324 325 326 326 326 326 328 329 326 326 326 327 327 326 327 328 327 327 327 327 327 327
306 307 309 311 312 313 313 313 313 313 313 313 314 314 313 316 317 317 318 316 315 317 318 322 323 322 321 325 325 323 323 324 325 325 326 326 326 326 328 326 326 327 325 326 326 327 327 327 327 327 327 327 326 326
305 305 306 309 312 312 312 312 312 312 312 312 312 312 316 316 319 319 317 314 315 318 321 322 324 325 321 322 324 325 325 326 324 326 325 325 327 330 328 327 325 325 326 326 326 326 326 326 327 327 326 326 326 326
304 304 304 307 310 311 311 311 311 311 311 310 313 317 319 318 316 316 318 318 317 318 318 320 321 323 320 323 324 326 325 326 328 327 326 328 329 326 326 328 329 328 328 327 327 327 327 327 327 326 326 325 326 327
303 303 304 305 309 309 309 310 310 309 310 313 316 319 318 317 318 320 320 319 319 319 318 320 320 322 320 322 324 324 328 327 328 328 327 327 327 328 328 328 328 328 328 328 327 327 327 326 326 326 326 326 326 326
302 302 303 305 308 308 308 308 308 311 312 314 316 316 317 319 319 320 320 319 319 321 321 321 321 320 322 321 322 323 325 325 326 326 326 327 333 330 328 328 327 328 328 327 327 327 326 326 326 326 327 326 326 326
301 302 303 304 306 306 307 307 308 311 313 314 315 316 318 319 320 321 322 321 321 320 321 322 323 322 323 321 323 326 325 325 324 326 325 329 330 330 329 328 328 328 327 327 327 326 326 326 326 326 325 326 326 326
301 301 302 303 304 305 306 307 309 312 313 315 317 319 320 319 320 322 322 321 321 321 322 321 324 325 325 325 325 326 325 325 326 326 327 334 330 329 329 328 327 326 326 326 326 326 326 325 325 325 326 325 325 326
301 301 301 302 303 304 305 307 311 311 313 315 313 322 319 318 319 319 319 319 319 320 321 321 323 323 325 325 326 326 327 327 326 327 332 329 328 328 327 326 326 326 326 326 326 325 326 325 325 325 325 325 325 325
301 301 301 302 303 304 306 308 310 311 312 312 312 318 318 319 319 319 318 318 319 319 320 320 323 325 325 324 325 326 326 326 329 329 326 327 327 326 327 326 326 327 326 325 326 326 325 325 325 325 324 323 323 322
301 303 304 302 303 304 307 309 310 311 311 311 312 315 317 318 319 318 318 318 318 319 321 321 323 323 322 325 324 324 326 329 325 324 324 327 326 326 326 326 326 327 326 327 327 326 325 324 324 323 322 322 323 325
303 305 303 303 304 305 307 308 310 311 311 311 313 316 316 317 318 318 317 318 319 318 319 322 322 324 323 322 322 325 326 324 323 322 322 324 324 327 326 326 327 327 327 326 325 324 323 323 320 320 321 321 324 325
304 303 304 304 305 307 307 308 309 310 311 312 313 314 315 316 317 317 317 317 317 318 318 319 322 323 322 321 321 322 321 322 322 321 321 320 321 322 324 326 327 327 326 325 324 321 319 319 319 319 318 320 322 323
302 303 304 305 305 308 308 309 309 310 312 313 313 315 315 315 315 316 316 317 317 317 317 319 320 319 319 320 320 320 320 322 322 320 319 320 320 321 323 327 326 325 324 322 320 319 318 317 317 317 317 318 320 320
302 304 304 306 305 306 309 308 309 311 312 312 313 315 315 316 316 316 316 316 317 317 317 317 317 317 318 319 319 319 319 321 320 320 319 319 320 320 324 326 324 323 323 320 320 319 318 318 317 317 317 316 317 317
304 304 305 306 306 307 309 309 310 312 313 313 314 315 315 315 316 316 317 317 317 317 317 317 318 318 318 318 318 318 318 319 319 319 317 318 320 324 325 323 322 323 321 321 319 317 317 318 317 316 315 314 314 315
305 306 307 306 308 308 311 312 312 313 314 313 315 316 316 316 316 317 317 317 318 318 318 317 317 318 318 319 319 319 319 319 318 318 319 319 321 325 322 321 321 320 319 319 319 318 319 319 316 315 316 315 316 315
306 306 308 310 309 310 311 311 311 313 312 314 316 317 317 318 320 319 320 318 318 320 320 321 321 322 322 323 322 321 319 319 318 318 320 323 323 322 321 319 319 318 318 318 317 316 316 318 317 316 314 311 312 312
307 308 309 308 311 310 311 312 312 312 314 315 316 318 319 318 319 319 320 321 322 323 320 320 322 323 324 322 320 320 319 319 319 322 321 322 322 320 320 319 319 318 318 318 316 315 314 312 312 312 313 313 312 311
309 309 308 310 311 311 312 314 313 314 315 316 317 317 316 319 320 322 322 320 321 323 322 322 324 324 322 323 322 322 322 322 323 322 321 320 319 319 318 318 318 318 318 318 315 315 314 312 311 311 311 310 310 310
310 311 311 311 312 312 314 315 315 316 316 316 316 319 319 319 319 318 317 319 320 320 322 323 322 324 325 323 323 323 322 321 319 318 318 318 318 318 318 318 318 318 318 317 316 315 315 314 313 312 312 312 311 311
311 313 314 313 313 314 314 314 316 317 318 318 317 318 316 314 319 319 319 320 320 323 322 322 320 319 319 319 318 319 320 319 319 319 318 318 319 318 318 318 318 317 318 317 317 315 315 315 314 314 313 313 313 312
311 314 315 315 313 314 314 318 319 318 316 315 316 317 317 318 319 319 321 320 318 316 316 319 320 319 320 320 320 320 319 318 318 318 318 318 318 318 317 318 319 318 316 316 316 316 316 315 315 314 314 314 313 313
315 314 315 317 318 319 317 315 315 317 317 317 319 322 321 320 322 323 323 320 322 320 319 319 319 319 318 319 319 318 318 319 319 318 318 318 318 318 318 318 318 318 317 316 315 315 315 315 315 316 315 315 315 313
317 316 316 317 318 318 319 320 320 320 322 323 323 321 321 321 321 322 322 321 320 320 320 320 319 318 318 318 318 319 318 319 319 319 319 318 318 318 319 319 318 318 317 317 317 317 317 317 316 316 315 315 314 314
317 318 318 320 321 322 322 323 323 324 324 324 324 322 324 321 322 322 322 322 321 318 320 320 321 320 320 320 320 319 318 319 318 319 319 320 320 320 319 319 319 319 318 317 318 319 319 318 317 317 316 316 315 315
316 317 318 320 322 323 323 323 323 323 323 323 323 323 323 322 322 323 323 324 324 324 324 323 322 323 323 323 322 321 320 320 320 320 320 318 316 317 319 319 318 318 319 319 319 318 318 318 319 317 318 317 316 315
Wind_Speed
20 22 23 19 17 17 16 14 12 11 10 10 9 8 9 9 10 10 5 12 8 7 11 3 1 5 6 7 6 7 7 9 8 7 8 9 6 6 5 10 8 8 9 10 10 11 14 8 6 5 5 2 5 4
21 21 20 18 16 15 15 14 13 12 11 10 9 8 7 7 8 8 4 10 11 5 8 10 12 13 12 10 9 7 8 5 7 5 2 5 4 7 7 11 5 7 7 8 7 5 4 4 5 4 6 6 4 6
20 19 17 16 15 14 14 14 12 12 11 10 10 8 7 6 6 6 7 10 10 9 14 7 5 4 2 8 9 11 6 5 5 7 10 5 4 8 8 8 8 7 8 7 12 8 4 6 8 11 11 13 13 14
18 17 15 15 14 14 13 13 12 11 11 11 11 9 8 7 6 6 4 8 7 8 7 4 1 4 5 7 10 12 12 7 10 10 12 7 8 1 8 8 7 10 3 8 10 13 17 14 8 6 13 13 15 17
18 17 15 15 14 14 12 11 11 11 11 11 11 9 8 7 6 6 5 4 2 4 7 13 13 12 7 6 6 9 14 12 12 11 7 7 11 6 10 10 9 11 8 9 8 16 13 14 16 14 18 13 17 18
19 17 16 15 14 13 12 10 10 10 11 11 11 10 8 7 4 3 4 2 1 6 6 4 1 6 7 7 9 11 12 14 16 11 9 10 10 3 7 9 10 8 5 8 13 13 17 18 18 16 16 15 14 18
17 17 16 16 15 13 11 10 10 10 10 10 10 10 8 7 6 4 3 4 6 4 5 6 4 6 6 6 5 8 11 12 14 15 15 15 12 8 9 12 16 14 13 13 9 9 12 7 9 12 14 18 20 22
16 15 16 16 15 13 12 11 10 9 9 8 9 8 6 5 4 4 7 9 5 3 5 4 4 3 7 9 9 7 8 11 12 15 16 11 5 7 6 13 9 6 6 8 7 10 11 13 14 17 18 21 24 25
15 15 15 15 15 13 12 11 10 9 8 6 5 3 3 3 4 7 10 6 5 5 7 5 7 2 2 9 4 6 7 6 10 9 14 9 9 6 10 9 8 6 8 13 12 15 14 16 17 20 22 24 25 26
14 14 13 12 13 13 12 11 9 9 7 4 3 1 5 5 8 4 2 3 4 4 8 8 10 6 4 3 7 9 5 4 3 5 3 5 11 19 15 5 8 9 10 8 11 12 16 19 22 24 26 26 26 26
14 13 14 13 13 13 12 11 10 8 7 5 3 1 1 4 2 3 4 5 5 4 7 9 13 9 6 7 5 2 2 2 3 5 4 5 5 5 6 5 5 4 6 9 12 15 18 22 26 28 27 25 27 29
13 13 12 12 13 13 12 11 12 13 9 8 5 5 3 4 4 5 3 4 5 4 5 7 6 12 3 4 6 2 5 2 4 3 4 5 5 7 7 4 5 6 9 12 15 18 22 25 27 25 24 26 28 26
12 11 11 12 13 13 13 14 15 15 9 5 3 3 5 5 2 6 8 5 4 5 7 9 9 4 5 7 2 3 5 5 1 4 4 1 7 6 2 3 7 10 13 16 20 23 25 24 23 24 26 28 29 29
11 11 11 11 13 13 15 16 18 15 7 4 6 3 5 5 6 7 8 3 4 3 6 6 5 3 2 3 4 4 4 4 4 3 7 5 4 2 1 5 10 15 18 21 21 23 20 20 23 25 26 28 29 29
8 8 9 12 13 14 16 20 17 16 5 4 3 4 7 11 5 4 3 3 3 7 8 8 6 6 4 4 4 3 3 4 4 3 3 7 4 3 5 8 12 15 17 19 20 20 19 21 24 26 26 28 28 28
6 5 8 12 14 15 17 22 15 14 3 4 5 7 10 9 10 13 10 9 7 9 7 8 4 4 6 3 4 6 4 5 2 3 9 9 4 5 8 11 14 15 16 19 16 16 19 21 23 24 26 25 29 28
4 3 3 8 14 16 20 15 12 7 7 5 6 15 15 11 6 4 5 3 7 10 8 1 5 8 4 3 5 5 3 4 3 9 6 4 4 7 10 13 15 15 17 16 17 19 20 20 23 23 27 29 27 22
5 3 4 10 18 18 19 7 8 7 6 6 7 14 17 15 10 10 5 3 7 12 6 5 5 5 4 6 4 1 3 4 2 4 7 6 8 9 11 15 15 16 15 15 16 18 20 22 24 22 24 25 21 19
7 8 10 13 19 9 8 6 4 3 9 7 16 21 12 15 19 18 15 11 14 13 4 4 6 8 9 13 11 9 4 6 7 6 8 8 8 10 13 15 15 14 13 12 13 17 19 18 17 19 19 17 16 16
10 9 13 16 19 5 4 4 8 4 5 8 13 17 19 21 19 17 19 17 16 15 11 8 12 20 18 11 6 13 7 2 6 9 9 9 11 12 15 13 12 10 9 12 17 19 22 19 17 16 18 17 13 15
11 12 14 12 21 7 4 5 6 6 7 12 15 17 18 16 17 18 21 22 20 22 19 27 27 25 22 20 18 16 12 11 12 14 12 16 13 15 13 10 9 7 8 11 15 18 20 20 18 17 17 18 14 10
9 14 11 17 6 6 4 8 5 4 5 7 12 12 13 16 18 21 20 19 23 25 26 27 25 25 23 21 21 20 21 21 17 16 18 17 14 9 7 7 8 6 8 7 12 19 23 25 22 20 19 18 20 20
12 10 7 6 6 8 4 6 6 5 4 3 6 5 7 14 18 14 10 18 27 25 23 22 22 21 22 21 18 15 15 15 17 16 14 11 6 3 1 6 6 7 7 9 8 10 10 16 22 27 28 30 30 32
10 6 5 7 6 4 4 4 3 4 5 4 4 8 8 5 3 4 8 16 19 15 13 15 15 15 16 15 15 17 15 14 13 13 8 6 6 5 5 7 7 8 8 8 9 10 11 9 13 13 18 25 31 35
3 5 4 4 7 5 3 3 5 4 4 8 5 5 1 2 2 3 6 6 9 9 11 13 13 12 9 10 8 7 9 12 11 8 8 11 9 9 8 7 5 7 7 9 10 10 11 13 14 14 14 15 15 17
4 5 5 8 6 5 6 3 6 8 7 5 4 2 2 3 4 4 1 5 4 3 6 11 11 9 7 6 8 8 10 8 11 14 12 10 11 11 9 8 8 6 6 7 9 11 12 13 14 15 18 18 18 19
3 6 7 9 6 6 6 7 3 3 2 2 2 3 2 2 3 3 6 2 6 9 7 8 13 9 11 10 11 12 14 14 12 12 11 10 9 8 7 9 8 7 6 7 8 10 11 12 12 13 14 15 16 17
5 4 5 12 12 2 3 3 3 5 5 2 4 2 1 2 2 4 4 6 9 12 18 21 21 18 18 20 19 19 17 17 13 11 11 10 9 8 7 7 7 5 6 8 8 8 9 10 11 11 11 12 12 12
4 4 1 2 3 6 7 5 2 3 1 4 3 5 8 10 8 8 9 17 21 24 24 19 16 18 16 15 13 11 14 14 14 12 11 11 11 9 8 7 5 7 7 5 7 7 7 7 8 8 8 9 9 10
3 5 4 5 3 0 0 3 5 5 5 6 3 7 8 10 7 3 14 16 15 15 16 14 15 14 14 14 13 11 10 10 11 10 10 10 10 10 8 7 7 7 7 8 7 7 7 5 4 4 4 4 6 7
2 0 3 3 3 4 4 4 4 3 2 2 5 9 11 15 9 8 7 11 11 14 13 11 14 13 13 12 12 12 10 8 8 7 3 3 8 9 8 8 7 6 6 6 4 4 3 4 3 3 5 5 4 5
3 2 3 3 2 1 1 2 3 4 5 7 6 7 2 12 5 7 4 6 16 8 8 7 10 13 4 5 8 6 4 4 8 6 6 3 11 9 8 7 8 6 7 4 4 1 3 2 2 2 2 2 2 2
3 3 4 4 3 2 3 3 3 3 4 6 8 10 8 9 5 3 1 4 6 3 10 13 11 8 8 8 8 7 4 5 5 5 4 7 8 7 4 7 8 10 8 7 6 6 4 5 5 4 3 1 1 1
Wind_Direction
275 277 283 287 287 284 283 281 275 273 279 291 307 327 341 350 1 17 336 8 20 310 300 296 242 277 264 246 279 58 268 205 266 257 265 269 231 264 253 271 288 262 258 252 234 250 259 25 279 315 49 83 3 15
269 274 281 285 282 280 279 277 270 263 268 277 288 304 325 335 348 2 3 338 333 278 292 292 271 260 252 257 285 273 304 303 340 292 310 301 270 253 262 285 123 255 271 320 315 24 139 2 352 18 319 302 277 309
273 277 279 276 276 277 276 275 267 256 258 266 276 288 304 316 327 341 345 339 340 292 294 242 220 255 253 222 224 271 229 270 263 288 309 302 294 300 277 269 295 250 224 261 301 292 346 341 302 300 289 286 286 291
272 271 270 272 273 273 273 274 266 251 252 258 269 280 292 301 309 327 350 315 335 302 280 139 168 188 231 253 246 242 259 273 261 268 259 259 270 188 276 312 304 294 322 273 281 275 282 278 287 321 310 292 288 289
267 265 265 266 266 268 270 272 264 248 249 256 266 275 283 286 290 311 302 290 8 353 320 306 287 257 266 237 242 243 235 242 243 228 235 247 257 280 269 267 273 271 311 257 285 336 323 302 296 298 289 284 288 283
260 261 261 260 261 262 262 259 256 253 252 256 265 272 278 270 271 5 231 253 304 344 299 290 126 245 227 251 255 244 226 228 238 253 257 260 262 254 277 276 284 318 263 244 279 301 301 291 286 284 276 277 292 293
255 254 252 252 253 251 249 249 251 252 254 256 262 270 271 249 225 238 312 199 298 330 271 280 253 165 217 243 219 213 215 223 231 240 246 260 272 203 261 268 282 292 286 286 304 286 279 287 289 295 296 293 292 289
246 246 248 249 244 240 238 240 244 247 250 253 259 271 267 228 240 268 253 258 271 260 254 268 264 227 193 232 194 199 217 225 234 249 262 251 220 245 274 280 309 313 293 268 267 284 278 287 288 288 296 299 296 292
232 240 247 249 238 232 231 234 237 240 242 246 259 245 191 206 222 216 266 251 225 234 291 231 274 88 146 245 256 186 240 219 246 221 237 266 244 207 227 232 257 254 270 292 290 280 286 289 294 300 300 299 295 294
231 238 243 242 228 224 225 226 229 227 219 196 153 168 209 189 231 235 315 189 225 220 239 255 259 267 232 203 230 151 227 254 243 236 265 241 259 261 230 256 294 285 280 271 268 286 300 303 301 303 301 297 300 302
230 234 238 237 221 216 217 217 212 197 172 151 190 226 215 209 152 231 208 225 199 237 230 237 241 250 189 256 275 210 146 275 251 184 239 212 232 144 149 191 215 252 266 275 284 291 297 301 301 301 301 303 298 296
228 234 229 221 212 206 205 201 181 168 175 184 185 191 179 208 214 234 217 204 206 241 200 222 185 211 165 224 257 182 249 245 255 188 233 256 93 142 175 203 263 280 288 293 295 298 300 301 301 305 302 299 294 298
219 216 216 217 201 200 196 190 182 172 164 159 206 204 206 187 206 225 197 203 190 229 205 192 194 211 190 227 213 235 239 218 237 231 224 337 126 134 138 273 284 294 292 297 301 301 302 307 307 305 302 298 302 299
220 218 216 210 199 196 190 184 174 180 166 180 189 240 217 198 230 215 240 346 118 199 248 220 175 253 231 238 221 251 193 218 224 229 234 105 91 77 354 305 299 302 305 304 306 307 315 313 307 306 303 305 303 297
204 209 215 206 194 191 186 177 174 182 177 191 194 237 225 246 281 262 255 254 219 224 215 237 198 231 211 230 216 254 227 224 240 255 92 120 79 24 340 324 320 316 314 313 312 316 314 312 311 311 311 307 307 300
189 217 231 203 194 181 179 177 179 185 208 215 227 245 232 229 239 246 220 238 189 210 229 243 216 251 214 231 200 222 254 222 71 87 109 114 55 348 334 329 323 319 318 315 316 314 315 315 316 315 317 318 318 312
168 204 227 197 175 174 171 174 174 187 203 215 240 243 264 276 260 302 256 230 207 230 227 219 236 215 217 219 228 217 271 11 38 75 81 60 345 325 329 328 321 318 319 317 317 321 319 317 316 317 326 330 335 331
175 211 197 178 161 168 175 161 184 209 218 210 233 235 233 252 265 282 287 282 239 239 220 234 294 246 235 246 250 279 112 187 89 352 347 351 319 316 322 324 321 318 321 324 329 329 328 324 324 324 324 327 333 336
195 196 171 164 164 156 169 200 184 247 223 226 239 259 276 260 255 255 258 248 249 249 212 227 240 238 242 258 285 218 222 284 258 231 278 296 309 320 320 322 325 333 332 339 357 347 346 343 342 338 337 338 345 356
205 197 185 172 175 168 173 206 195 243 220 234 241 247 245 253 254 256 251 244 229 240 262 229 243 257 276 287 323 302 296 334 289 294 296 301 314 319 329 329 328 330 351 7 8 5 1 4 4 357 359 1 353 356
210 197 196 182 198 230 215 192 210 246 252 251 251 241 249 254 249 243 241 237 228 229 241 249 255 259 265 274 280 280 285 260 261 275 281 291 308 312 317 332 335 36 12 20 29 20 29 26 24 22 22 19 22 28
201 189 187 189 177 217 237 215 228 227 248 270 278 263 250 260 258 241 244 247 245 242 247 252 254 259 267 265 264 261 261 258 263 270 276 273 270 314 327 340 10 30 38 48 45 43 43 40 39 38 40 45 51 52
168 180 135 152 196 206 240 200 226 216 224 240 278 237 228 237 240 244 234 240 245 249 250 253 259 260 259 259 259 255 243 241 244 243 243 245 263 261 144 65 63 66 57 56 52 33 32 40 44 51 61 68 71 69
142 153 185 191 199 223 206 193 244 227 219 239 260 253 258 248 241 252 255 250 253 251 249 239 241 249 252 249 243 233 228 228 228 222 223 221 184 184 150 103 101 82 73 65 56 55 56 67 64 57 58 61 66 70
174 207 193 224 190 196 234 189 200 236 253 233 239 251 225 179 238 260 260 289 244 237 232 238 240 235 227 231 196 172 185 199 195 177 185 164 159 134 122 114 88 70 62 60 58 65 67 66 65 65 65 63 64 62
221 211 200 200 186 212 202 216 208 219 237 215 239 275 276 232 220 240 229 349 328 295 234 229 214 203 194 162 155 166 180 173 162 147 149 151 143 136 133 134 122 74 71 71 77 77 77 76 77 74 72 73 74 73
229 209 204 212 217 215 234 233 209 287 308 247 276 228 208 275 283 319 309 113 357 334 280 222 198 178 145 135 136 136 130 138 137 139 140 139 135 135 137 130 115 102 89 90 91 85 84 83 83 81 81 78 75 74
255 254 209 194 209 209 352 290 234 216 209 192 1 352 145 207 288 136 174 131 49 91 97 109 109 108 117 125 126 130 139 129 135 133 133 133 126 120 112 121 139 108 112 106 102 101 93 88 86 85 84 82 79 74
254 251 262 64 217 220 219 236 306 34 76 181 204 194 190 167 159 192 175 142 112 94 102 105 108 123 126 137 136 133 126 126 125 131 132 133 133 130 129 125 123 124 104 122 111 108 103 93 95 87 84 82 78 75
244 202 240 256 242 217 191 285 268 283 280 277 274 116 118 132 148 134 88 129 146 129 118 125 124 126 128 131 136 133 137 134 134 134 144 147 149 149 142 135 132 139 133 121 111 107 121 111 94 65 70 77 90 75
111 20 298 268 251 240 244 248 238 230 234 160 127 123 139 136 113 82 112 103 108 118 124 140 128 120 124 129 137 156 152 156 161 163 144 171 150 154 156 160 155 151 147 147 145 142 96 81 73 61 66 69 61 57
333 320 311 295 328 15 101 128 132 151 151 141 151 142 96 107 95 118 163 134 135 142 133 137 136 114 90 129 157 152 83 125 137 150 158 118 62 155 180 216 189 188 180 165 205 194 66 88 174 63 110 86 70 79
271 256 244 265 217 175 155 120 132 133 150 175 156 150 165 121 128 146 226 33 126 79 105 139 143 113 103 81 101 122 166 207 204 205 206 224 242 259 251 209 200 195 195 194 226 234 257 257 259 262 286 280 303 352